ICEYE-X25

operational
NORAD ID: 56963 Int'l Des: 2023-084 Owner: ICEYE Country: FI
LEOCIRCULARRETROGRADE

Über ICEYE-X25

Beschreibung wird geladen...

Live-Position

3D-Globus wird geladen...

Nächste Überflüge

Höhenverlauf

Altitude vs Time

uPlot chart will show altitude changes over time

Zweizeiliger Elementsatz

1 56963U 23084AH 26061.61752545 .00028692 00000-0 49801-3 0 9998
2 56963 97.5758 201.3539 0003848 305.9529 54.1365 15.50812529151404
Epoch: 2. März 2026 • Age: 31 hours

Aktueller Status

Höhe 422.2 km
Geschwindigkeit 7.66 km/s
Subsatellitenpunkt -18.29°S, 111.1°E
Startdatum 12. Juni 2023
Alter 2.7 years
Typ earth observation

Technische Details

Klassifizierung Payload
Masse 90.00 kg
Trockenmasse 89.00 kg
Gesamtmasse 90.00 kg
Länge 0.70 m
Durchmesser 0.50 m
Spannweite 3.25 m
Form Box + pan
Hersteller ICEYE
Bus-Typ ICEYE
Phasenstatus In Orbit
Besitzer/Staat ICEYE/FI

Große Konstellationen

Loading constellations...